When you browse on this site, cookies collect data to enhance your experience and personalize the content and advertising you see.
Visit our Privacy Policy to learn more. By continuing to use the site, you agree to this use of cookies and data.
  • In United Kingdom
  • List of Countries
  • For 7 days
  • Water Temperature
  • Weather Map
  • Weather Widgets
  • user-avatar
    Login

    Hourly Weather Kankan

    Today, 25 May, Monday

    Time Temperature Precipitation Wind Pressure Humidity
    00:00 +24°C° 0.1 mm 1 mps 685 mmHg 78%
    01:00 +24°C° 0.1 mm 1 mps 685 mmHg 78%
    02:00 +24°C° 0.1 mm 1 mps 684 mmHg 79%
    03:00 +24°C° 0.1 mm 1 mps 684 mmHg 79%
    04:00 +24°C° 0.1 mm 1 mps 684 mmHg 80%
    05:00 +24°C° 0 mm 1 mps 684 mmHg 79%
    06:00 +25°C° 0 mm 1 mps 685 mmHg 79%
    07:00 +25°C° 0 mm 1 mps 685 mmHg 78%
    08:00 +27°C° 0 mm 1 mps 686 mmHg 71%
    09:00 +28°C° 0 mm 1 mps 686 mmHg 65%
    10:00 +30°C° 0 mm 1 mps 687 mmHg 58%
    11:00 +32°C° 0.2 mm 1 mps 687 mmHg 52%
    12:00 +34°C° 0.2 mm 2 mps 687 mmHg 47%
    13:00 +36°C° 0.2 mm 2 mps 687 mmHg 41%
    14:00 +32°C° 4.2 mm 2 mps 686 mmHg 54%
    15:00 +29°C° 4.2 mm 2 mps 684 mmHg 67%
    16:00 +26°C° 4.2 mm 2 mps 683 mmHg 80%
    17:00 +26°C° 1 mm 2 mps 684 mmHg 81%
    18:00 +25°C° 1 mm 2 mps 684 mmHg 81%
    19:00 +25°C° 1 mm 1 mps 684 mmHg 82%
    20:00 +25°C° 0 mm 1 mps 684 mmHg 82%
    21:00 +25°C° 0 mm 1 mps 684 mmHg 82%
    22:00 +25°C° 0 mm 1 mps 684 mmHg 81%
    23:00 +25°C° 0 mm 1 mps 684 mmHg 79%

    Tomorrow, 26 May, Tuesday

    Time Temperature Precipitation Wind Pressure Humidity
    00:00 +25°C° 0 mm 1 mps 685 mmHg 77%
    01:00 +25°C° 0 mm 1 mps 685 mmHg 75%
    02:00 +24°C° 0 mm 1 mps 685 mmHg 76%
    03:00 +24°C° 0 mm 1 mps 684 mmHg 77%
    04:00 +24°C° 0 mm 1 mps 684 mmHg 77%
    05:00 +24°C° 0 mm 1 mps 685 mmHg 76%
    06:00 +24°C° 0 mm 1 mps 685 mmHg 75%
    07:00 +25°C° 0 mm 1 mps 686 mmHg 74%
    08:00 +27°C° 0 mm 1 mps 686 mmHg 64%
    09:00 +29°C° 0 mm 2 mps 687 mmHg 55%
    10:00 +32°C° 0 mm 2 mps 687 mmHg 46%
    11:00 +34°C° 0 mm 3 mps 687 mmHg 41%
    12:00 +36°C° 0 mm 3 mps 687 mmHg 37%
    13:00 +37°C° 0 mm 3 mps 687 mmHg 32%
    14:00 +37°C° 0 mm 4 mps 686 mmHg 34%
    15:00 +36°C° 0 mm 4 mps 685 mmHg 36%
    16:00 +36°C° 0 mm 4 mps 685 mmHg 38%
    17:00 +34°C° 0 mm 3 mps 685 mmHg 44%
    18:00 +31°C° 0 mm 2 mps 684 mmHg 50%
    19:00 +29°C° 0 mm 2 mps 684 mmHg 57%
    20:00 +28°C° 0.1 mm 2 mps 685 mmHg 62%
    21:00 +27°C° 0.1 mm 1 mps 685 mmHg 66%
    22:00 +27°C° 0.1 mm 1 mps 685 mmHg 71%
    23:00 +26°C° 0 mm 1 mps 685 mmHg 73%

    Day after tomorrow, 27 May, Wednesday

    Time Temperature Precipitation Wind Pressure Humidity
    00:00 +26°C° 0 mm 2 mps 685 mmHg 75%
    01:00 +26°C° 0 mm 2 mps 685 mmHg 76%
    02:00 +25°C° 0 mm 2 mps 685 mmHg 78%
    03:00 +25°C° 0 mm 1 mps 684 mmHg 80%
    04:00 +25°C° 0 mm 1 mps 684 mmHg 82%
    05:00 +25°C° 0 mm 1 mps 685 mmHg 83%
    06:00 +25°C° 0 mm 1 mps 685 mmHg 83%
    07:00 +25°C° 0 mm 1 mps 685 mmHg 83%
    08:00 +27°C° 0 mm 2 mps 686 mmHg 77%
    09:00 +28°C° 0 mm 2 mps 686 mmHg 70%
    10:00 +30°C° 0 mm 2 mps 687 mmHg 63%
    11:00 +31°C° 0.1 mm 2 mps 687 mmHg 57%
    12:00 +34°C° 0.1 mm 2 mps 686 mmHg 51%
    13:00 +34°C° 0.1 mm 1 mps 686 mmHg 45%
    14:00 +34°C° 0.7 mm 2 mps 685 mmHg 48%
    15:00 +33°C° 0.7 mm 3 mps 685 mmHg 51%
    16:00 +31°C° 0.7 mm 3 mps 684 mmHg 54%
    17:00 +30°C° 0.5 mm 3 mps 684 mmHg 58%
    18:00 +29°C° 0.5 mm 2 mps 683 mmHg 63%
    19:00 +27°C° 0.5 mm 2 mps 683 mmHg 68%
    20:00 +27°C° 0 mm 2 mps 684 mmHg 68%
    21:00 +27°C° 0 mm 2 mps 684 mmHg 69%
    22:00 +26°C° 0 mm 2 mps 685 mmHg 70%
    23:00 +26°C° 0 mm 2 mps 685 mmHg 70%

    28 May, Thursday

    Time Temperature Precipitation Wind Pressure Humidity
    00:00 +26°C° 0 mm 2 mps 684 mmHg 70%
    01:00 +26°C° 0 mm 1 mps 684 mmHg 71%
    02:00 +26°C° 0 mm 2 mps 684 mmHg 72%
    03:00 +25°C° 0 mm 2 mps 684 mmHg 74%
    04:00 +25°C° 0 mm 2 mps 684 mmHg 75%
    05:00 +25°C° 0 mm 2 mps 684 mmHg 78%
    06:00 +25°C° 0 mm 2 mps 684 mmHg 80%
    07:00 +25°C° 0 mm 2 mps 685 mmHg 82%
    08:00 +27°C° 0 mm 3 mps 685 mmHg 75%
    09:00 +29°C° 0 mm 3 mps 686 mmHg 67%
    10:00 +31°C° 0 mm 3 mps 686 mmHg 60%
    11:00 +33°C° 0.1 mm 3 mps 686 mmHg 54%
    12:00 +35°C° 0.1 mm 2 mps 686 mmHg 47%
    13:00 +36°C° 0.1 mm 2 mps 685 mmHg 41%
    14:00 +35°C° 0 mm 2 mps 685 mmHg 43%
    15:00 +35°C° 0 mm 2 mps 684 mmHg 44%
    16:00 +34°C° 0 mm 2 mps 683 mmHg 46%
    17:00 +32°C° 0.1 mm 2 mps 683 mmHg 50%
    18:00 +30°C° 0.1 mm 1 mps 683 mmHg 54%
    19:00 +29°C° 0.1 mm 1 mps 683 mmHg 57%
    20:00 +28°C° 0 mm 1 mps 683 mmHg 59%
    21:00 +28°C° 0 mm 1 mps 684 mmHg 61%
    22:00 +27°C° 0 mm 1 mps 684 mmHg 63%
    23:00 +27°C° 0 mm 1 mps 684 mmHg 64%

    29 May, Friday

    Time Temperature Precipitation Wind Pressure Humidity
    00:00 +26°C° 0 mm 1 mps 684 mmHg 65%
    01:00 +26°C° 0 mm 1 mps 683 mmHg 66%
    02:00 +26°C° 0 mm 1 mps 683 mmHg 67%
    03:00 +25°C° 0 mm 1 mps 683 mmHg 69%
    04:00 +25°C° 0 mm 2 mps 683 mmHg 71%
    05:00 +25°C° 0 mm 2 mps 684 mmHg 73%
    06:00 +25°C° 0 mm 2 mps 684 mmHg 76%
    07:00 +25°C° 0 mm 2 mps 684 mmHg 78%
    08:00 +28°C° 0 mm 2 mps 685 mmHg 70%
    09:00 +30°C° 0 mm 1 mps 686 mmHg 61%
    10:00 +32°C° 0 mm 1 mps 687 mmHg 52%
    11:00 +34°C° 0 mm 1 mps 686 mmHg 46%
    12:00 +35°C° 0 mm 1 mps 686 mmHg 41%
    13:00 +37°C° 0 mm 1 mps 686 mmHg 35%
    14:00 +37°C° 0.2 mm 2 mps 685 mmHg 38%
    15:00 +35°C° 0.2 mm 2 mps 684 mmHg 41%
    16:00 +34°C° 0.2 mm 2 mps 683 mmHg 44%
    17:00 +32°C° 0.1 mm 2 mps 683 mmHg 51%
    18:00 +30°C° 0.1 mm 3 mps 683 mmHg 58%
    19:00 +28°C° 0.1 mm 3 mps 683 mmHg 64%
    20:00 +28°C° 0.4 mm 2 mps 683 mmHg 67%
    21:00 +27°C° 0.4 mm 2 mps 684 mmHg 70%
    22:00 +26°C° 0.4 mm 2 mps 684 mmHg 73%
    23:00 +26°C° 0.1 mm 2 mps 684 mmHg 74%

    30 May, Saturday

    Time Temperature Precipitation Wind Pressure Humidity
    00:00 +25°C° 0.1 mm 2 mps 684 mmHg 75%
    01:00 +25°C° 0.1 mm 2 mps 684 mmHg 76%
    02:00 +25°C° 0 mm 2 mps 683 mmHg 77%
    03:00 +25°C° 0 mm 2 mps 683 mmHg 77%
    04:00 +25°C° 0 mm 2 mps 683 mmHg 78%
    05:00 +25°C° 0 mm 2 mps 684 mmHg 78%
    06:00 +25°C° 0 mm 2 mps 684 mmHg 78%
    07:00 +25°C° 0 mm 1 mps 685 mmHg 79%
    08:00 +27°C° 0 mm 2 mps 685 mmHg 72%
    09:00 +29°C° 0 mm 2 mps 686 mmHg 65%
    10:00 +30°C° 0 mm 2 mps 687 mmHg 59%
    11:00 +32°C° 0 mm 2 mps 686 mmHg 53%
    12:00 +35°C° 0 mm 2 mps 686 mmHg 46%
    13:00 +36°C° 0 mm 1 mps 686 mmHg 40%
    14:00 +35°C° 0.3 mm 1 mps 685 mmHg 40%
    15:00 +35°C° 0.3 mm 1 mps 685 mmHg 40%
    16:00 +35°C° 0.3 mm 1 mps 684 mmHg 40%
    17:00 +32°C° 1.1 mm 2 mps 684 mmHg 50%
    18:00 +30°C° 1.1 mm 2 mps 683 mmHg 60%
    19:00 +27°C° 1.1 mm 3 mps 683 mmHg 71%
    20:00 +26°C° 0.2 mm 2 mps 683 mmHg 74%
    21:00 +26°C° 0.2 mm 2 mps 684 mmHg 78%
    22:00 +25°C° 0.2 mm 2 mps 684 mmHg 82%
    23:00 +25°C° 0 mm 2 mps 684 mmHg 80%
    Show more